Wind_Speed
23 18 17 17 14 12 11 12 12 9 9 9 10 11 11 11 9 9 11 11 11 13 13 12 14 14 11 8 12 15 13 12 11 11 11 9 8 7 7 8 8 8 8 8 9 9 9 9 9 10 10 10 9 9 9 8 9 9 7 6 5 4 3 3 3 2 2 1 1 3 3 3 4 5 5 6 10 13 14 15 16 19 20 20 20 21
25 20 18 16 13 13 14 15 16 13 12 11 12 11 11 11 9 10 12 10 11 13 12 14 16 16 13 10 13 17 16 15 13 11 12 11 11 11 10 10 10 11 9 7 8 9 9 9 9 9 9 10 9 9 9 9 10 10 9 7 5 5 5 5 4 3 2 1 1 2 3 3 4 5 6 7 10 13 15 16 18 19 19 20 21 21
21 21 19 14 16 21 20 20 19 15 14 14 12 12 11 10 9 10 11 11 11 13 14 16 18 16 13 11 15 17 17 16 15 13 13 13 13 13 12 12 12 13 12 10 10 10 10 10 9 9 9 9 9 8 9 10 11 11 12 9 7 6 6 6 5 4 3 2 1 2 2 3 4 6 7 8 10 13 15 17 18 18 18 19 20 21
16 17 16 17 23 24 20 20 20 17 16 15 13 13 11 8 8 7 10 13 13 13 14 15 16 13 10 10 13 16 16 15 15 14 14 14 15 14 14 14 15 15 14 12 11 11 11 10 9 9 10 10 10 9 9 10 10 11 12 11 9 8 8 7 6 5 4 3 3 2 2 4 4 5 7 9 11 14 15 16 17 17 18 19 20 20
13 13 15 18 22 20 15 15 16 15 14 14 15 15 12 9 9 9 11 14 14 13 11 13 13 8 6 8 9 11 12 12 12 14 15 15 15 16 16 16 15 14 14 14 12 12 11 10 9 9 9 9 10 10 10 10 10 11 12 12 12 11 10 9 8 7 6 5 4 4 4 5 6 5 6 9 12 13 15 16 16 16 17 19 19 20
13 16 17 13 11 12 12 11 11 13 13 13 14 14 13 12 12 11 11 12 12 9 7 11 10 4 3 5 7 7 8 9 10 12 13 14 15 16 18 18 15 14 14 14 14 13 11 11 10 9 8 7 8 9 10 11 11 11 13 15 14 12 11 11 10 9 8 6 6 6 6 6 8 9 8 9 11 13 14 15 16 16 17 18 19 19
13 16 15 9 7 9 10 11 11 12 13 11 9 11 11 10 10 10 9 10 10 7 8 11 9 6 7 5 7 9 8 9 11 10 11 12 13 14 16 18 17 14 14 14 14 14 12 11 10 9 8 8 8 9 10 12 12 12 13 15 15 13 13 13 12 11 10 8 8 8 8 7 8 10 12 12 12 13 14 15 16 16 17 17 18 19
13 13 13 12 9 9 10 11 10 10 12 9 6 10 10 8 9 9 8 10 9 8 10 10 7 8 9 6 8 11 9 8 10 11 12 12 12 11 13 16 16 15 14 14 14 14 13 11 10 9 9 9 9 10 10 11 11 12 14 15 15 15 15 15 14 13 11 10 10 11 10 9 9 9 11 14 15 15 15 16 16 17 17 18 17 18
8 12 13 12 10 10 11 9 7 8 10 9 7 10 10 8 9 9 9 8 6 7 8 6 6 7 8 7 8 9 8 6 7 12 13 11 12 11 12 13 14 15 15 14 14 14 13 12 11 11 11 11 11 11 11 10 11 13 15 15 15 16 17 17 16 15 13 12 13 13 12 11 11 10 11 13 16 16 17 17 17 18 18 19 18 18
7 14 14 12 11 10 9 8 8 7 7 8 7 8 9 10 9 6 7 7 5 8 8 5 6 7 6 8 7 6 7 4 4 10 13 10 11 12 13 13 14 16 16 15 14 14 13 13 13 13 13 14 13 12 11 11 12 13 14 14 14 16 19 19 18 16 15 15 14 14 13 13 12 12 12 13 15 17 18 18 19 19 19 20 20 19
9 15 17 15 14 11 9 9 10 8 7 6 5 6 8 8 6 5 5 6 6 8 7 6 7 7 6 6 5 5 8 7 5 8 11 12 13 12 13 14 14 15 16 16 15 14 15 14 15 16 15 15 14 13 12 11 11 12 12 13 13 14 17 19 19 18 17 17 16 15 15 15 14 14 14 14 15 17 18 19 19 20 20 21 21 20
11 16 19 18 15 12 10 10 10 10 8 7 5 7 9 8 7 8 7 6 8 7 5 6 7 7 7 6 6 7 9 11 11 10 12 14 15 14 13 12 12 13 15 16 16 16 16 16 17 17 16 15 14 13 13 12 12 12 12 13 13 13 15 17 18 17 17 17 17 16 16 15 15 15 16 15 16 17 18 20 20 21 21 22 22 21
12 15 16 16 16 14 12 10 11 12 11 10 8 9 11 9 7 8 7 7 8 5 4 8 9 7 7 6 8 9 9 11 13 13 12 13 14 13 13 12 11 11 13 14 16 17 17 18 18 18 17 15 14 14 14 14 14 13 13 13 14 14 15 16 17 17 17 17 17 17 17 17 16 17 17 18 18 18 19 20 21 22 23 23 23 22
11 14 15 17 18 17 16 13 12 12 12 13 12 11 12 8 5 6 5 6 7 3 4 9 10 7 6 5 7 8 8 10 13 14 13 12 13 12 11 12 11 11 12 12 15 16 17 18 19 19 18 15 14 15 15 14 14 13 13 14 14 15 16 17 17 17 17 16 15 16 17 18 18 18 19 20 21 21 21 22 23 23 24 25 25 24
9 10 13 16 16 16 19 18 14 10 9 12 12 13 14 11 8 6 5 5 5 2 3 6 6 5 4 5 8 9 7 8 10 12 13 12 12 11 10 11 11 11 11 12 14 16 17 18 18 18 17 15 15 15 15 14 14 14 14 15 15 16 16 17 17 17 17 16 14 15 16 18 19 20 21 22 23 23 23 23 24 25 26 26 26 26
9 9 8 12 14 12 14 16 15 14 12 11 11 13 15 13 10 8 7 7 7 5 4 4 5 7 8 7 8 7 5 6 7 8 10 11 10 11 10 10 11 11 11 12 13 15 16 16 16 16 16 16 15 15 15 14 15 15 15 15 16 16 16 16 16 16 16 16 16 16 16 17 19 21 23 24 25 25 25 25 26 27 27 28 28 28
9 6 5 10 13 14 12 10 14 15 11 9 11 15 15 12 11 10 7 6 8 8 4 4 7 7 6 5 6 7 5 6 8 7 6 8 8 9 10 10 12 12 11 11 12 13 14 15 15 16 16 15 15 15 15 15 15 16 15 16 16 17 16 16 16 16 17 18 18 18 18 18 20 21 22 24 26 27 28 29 29 29 29 30 30 30
9 7 6 7 9 14 15 11 11 13 13 11 10 11 13 11 10 8 7 6 6 6 3 5 9 7 4 2 3 6 5 5 9 7 5 6 8 8 10 11 12 13 12 11 11 12 12 13 15 15 15 15 15 15 15 15 15 15 15 16 16 17 17 17 17 18 19 20 19 19 20 21 22 22 22 23 26 29 31 32 32 32 32 32 33 33
9 9 8 9 7 9 11 9 8 9 13 17 12 9 10 10 8 8 8 7 5 5 4 4 6 6 4 6 7 6 5 5 7 7 5 6 7 9 11 11 12 12 12 12 12 12 12 13 14 15 15 15 14 14 14 14 15 15 15 16 17 17 18 18 19 19 20 20 21 22 22 23 23 23 23 24 26 29 33 34 35 35 35 35 34 35
9 8 7 9 8 8 9 9 9 6 8 15 16 12 10 9 8 8 9 8 5 5 4 2 4 4 3 4 8 6 6 5 5 6 5 6 7 9 10 12 13 13 12 12 12 12 12 12 13 14 15 14 14 14 13 14 14 16 16 17 17 17 17 17 18 19 20 22 23 24 24 24 24 24 24 25 26 29 33 36 37 38 38 38 37 36
8 8 8 7 8 10 10 9 8 6 5 10 14 14 11 10 8 8 9 10 9 7 4 3 6 4 3 2 7 6 5 4 3 6 7 6 7 8 9 12 13 13 12 12 12 11 12 13 13 14 14 14 14 13 13 14 15 16 16 16 17 17 17 17 18 20 21 21 22 23 23 24 24 25 25 26 26 28 31 36 39 41 41 41 40 39
8 9 11 10 12 14 11 7 7 8 7 9 13 14 13 12 10 9 7 9 10 10 8 5 6 4 1 5 7 4 5 5 4 6 8 7 8 8 9 11 12 12 13 12 11 10 11 12 13 14 14 14 14 14 13 14 15 15 16 16 17 17 18 19 19 20 20 21 22 22 22 24 25 26 26 26 27 28 30 34 40 43 44 43 43 42
10 10 12 13 15 15 11 9 12 12 8 10 13 13 12 12 13 12 8 6 8 10 9 6 5 5 4 5 6 4 6 6 5 6 8 8 9 9 10 11 11 12 13 12 11 10 11 12 13 13 14 14 14 14 13 14 14 14 14 16 17 18 19 19 20 20 20 21 22 22 22 23 25 26 27 26 26 27 28 32 38 43 45 45 45 44
9 10 11 14 14 15 13 11 12 12 10 11 13 12 12 12 12 13 9 7 9 9 8 6 5 6 7 6 6 4 7 8 6 5 8 9 9 10 10 10 10 11 12 12 11 10 11 12 12 13 14 14 14 14 13 13 13 14 14 15 16 18 19 19 19 19 20 20 20 20 21 22 23 25 26 26 26 26 27 30 36 42 45 46 47 46
6 7 10 12 12 13 13 9 9 10 10 11 10 11 14 13 12 13 9 9 11 9 9 10 5 3 6 6 6 6 9 10 8 6 7 9 10 10 10 9 10 10 10 10 10 10 10 11 12 12 13 13 13 13 13 13 13 14 15 15 16 17 18 17 17 17 17 17 17 18 19 20 21 22 23 23 23 25 26 28 33 38 43 46 47 47
7 8 9 10 9 10 9 6 6 8 10 11 10 11 14 13 12 12 9 10 10 6 7 12 10 8 9 8 7 9 12 12 11 8 8 9 10 10 9 9 9 9 9 9 8 9 10 11 11 12 12 12 12 12 12 13 13 14 14 15 15 15 15 15 15 15 15 16 16 16 16 17 18 19 18 18 18 20 23 27 31 35 40 44 46 47
8 9 11 12 11 11 11 9 8 9 12 14 14 13 12 11 11 10 9 9 9 7 9 13 13 13 14 11 7 8 11 12 13 11 9 10 10 9 9 9 9 9 8 8 7 8 9 11 11 11 11 11 11 11 11 11 12 12 13 13 13 13 13 14 15 15 15 15 14 14 14 15 16 16 15 15 15 16 19 23 27 32 38 42 43 45
7 8 11 13 12 12 14 14 12 13 14 14 15 15 14 12 11 11 11 8 7 10 9 7 8 12 12 10 8 8 11 12 13 12 10 10 10 9 9 9 8 9 8 7 7 7 9 10 10 10 10 9 9 9 10 10 10 11 11 11 12 12 12 14 14 14 15 14 13 12 13 15 16 16 14 12 13 14 16 19 23 28 35 39 40 42
8 9 10 11 13 12 12 14 15 16 15 14 15 15 15 13 12 13 14 9 8 12 10 7 9 11 10 10 9 10 12 12 12 12 11 10 9 8 8 8 8 8 7 6 7 7 8 9 9 8 8 7 7 8 8 9 10 10 10 11 11 11 12 13 13 14 14 13 11 10 12 14 15 15 13 12 12 13 14 17 20 25 32 36 38 41
10 10 10 11 14 15 12 12 14 15 15 14 16 15 14 14 14 14 14 12 12 14 12 11 14 13 10 11 11 12 13 13 13 12 10 10 9 7 8 8 8 8 7 6 6 7 7 7 7 7 6 6 7 7 8 9 9 9 9 10 10 11 12 12 12 13 13 10 9 10 12 14 14 14 13 12 14 15 16 20 23 25 29 35 38 40
12 10 11 12 14 15 13 11 12 11 12 14 15 16 16 16 15 14 14 13 13 13 12 11 12 11 9 11 13 13 13 14 14 11 9 9 8 7 7 7 8 7 6 6 6 6 6 6 5 5 6 6 6 7 8 9 9 9 9 10 10 10 11 11 11 11 10 8 8 9 11 13 13 12 12 13 13 14 18 19 20 25 27 31 35 37
14 12 11 12 14 15 13 11 11 11 13 16 16 16 17 17 16 16 14 12 12 12 11 9 10 12 12 12 13 12 12 14 14 10 9 10 8 8 7 8 8 7 6 6 6 5 5 4 4 5 5 5 6 7 8 9 9 9 9 9 9 10 11 10 10 10 8 7 8 8 9 11 11 11 10 11 11 12 14 8 11 21 21 22 27 32
17 14 12 11 13 15 13 10 11 12 14 16 15 16 18 17 15 15 12 11 12 12 10 9 11 13 13 13 12 10 10 12 13 11 9 11 10 9 8 9 9 7 6 6 5 5 4 3 3 4 4 6 7 7 8 8 9 9 9 9 8 9 10 9 8 8 6 6 6 6 7 9 10 9 9 9 9 9 10 7 8 14 14 17 21 26
18 16 12 10 12 15 14 11 12 14 13 13 13 15 18 18 15 12 11 14 16 16 15 14 14 14 12 10 9 8 10 12 12 11 9 10 11 11 10 10 10 7 6 6 5 5 4 2 2 3 4 6 7 7 8 8 8 9 8 8 7 8 9 8 7 6 5 5 6 6 6 8 9 9 8 7 7 6 7 5 2 7 11 16 20 22
17 15 13 12 13 16 15 12 12 13 13 12 14 16 17 17 17 15 16 19 20 19 19 19 16 14 13 11 9 8 10 12 13 10 8 11 12 12 12 11 10 8 7 7 6 5 3 2 2 3 3 5 6 7 8 8 8 8 8 7 7 7 8 8 7 5 5 6 6 6 6 7 8 8 8 7 6 5 4 3 2 6 9 13 17 18
17 15 14 13 14 15 16 15 13 12 9 9 12 14 14 16 19 17 15 18 20 20 20 20 18 15 14 13 12 11 11 14 14 10 8 12 13 14 14 12 11 9 9 9 6 4 3 2 2 2 2 4 5 6 7 8 8 8 8 8 7 7 7 7 7 6 6 6 7 7 7 7 7 7 7 7 6 4 3 2 2 6 8 10 13 15
17 15 13 14 15 15 18 20 19 17 13 9 11 14 14 16 18 16 10 11 19 20 19 19 19 17 16 15 15 13 11 11 13 12 9 12 14 14 15 13 11 10 10 10 8 5 3 3 2 1 1 3 4 6 7 7 8 8 8 8 7 6 6 6 7 7 7 7 7 7 7 7 7 7 7 6 6 4 2 2 3 6 9 11 13 15
15 14 12 12 13 14 17 19 18 17 14 10 12 18 19 17 18 18 12 9 15 18 17 17 18 18 18 17 17 15 10 5 7 12 11 12 14 15 15 14 12 10 11 11 10 7 4 3 2 1 1 3 4 5 6 7 8 8 8 7 6 6 6 6 6 6 7 7 7 7 7 7 7 7 7 6 5 4 2 2 3 5 9 12 15 18
13 14 13 14 14 14 15 17 17 15 11 8 11 16 19 19 18 16 12 10 15 18 18 18 18 18 19 20 19 17 12 9 11 14 13 12 15 16 16 15 14 12 11 12 12 9 6 4 4 2 1 2 4 5 5 6 7 7 7 7 6 5 5 6 6 6 6 7 7 7 7 7 7 7 6 5 4 4 3 2 3 4 7 10 13 18
10 11 13 15 17 16 16 17 17 12 8 11 12 13 16 18 17 14 9 9 15 20 20 18 18 18 18 19 19 17 15 16 17 16 13 12 14 16 17 17 16 14 13 13 13 11 8 7 6 3 0 2 3 5 5 5 6 6 7 7 6 6 5 4 5 6 6 6 6 6 7 7 7 6 6 5 4 4 4 3 3 4 5 7 10 14
9 9 11 13 16 16 16 18 16 9 7 12 13 12 13 14 13 11 8 9 15 19 19 18 17 15 15 16 16 16 16 17 18 17 15 14 15 17 18 18 18 17 15 14 14 13 10 9 7 5 2 1 2 4 5 6 6 6 6 6 6 6 6 4 4 5 6 6 6 6 7 7 7 7 6 5 4 5 5 5 4 5 5 5 6 9
8 8 11 13 14 14 14 16 15 9 8 13 14 13 13 11 9 10 11 12 15 16 15 15 14 12 12 12 12 14 15 15 16 16 15 15 16 17 17 17 18 18 17 15 15 14 12 11 10 7 4 2 1 3 4 6 6 6 6 6 6 6 6 5 4 4 5 6 6 6 7 7 7 7 7 6 5 5 5 6 6 6 6 6 5 4
7 8 9 9 9 11 13 15 13 7 8 13 14 12 12 11 11 13 14 14 15 13 12 12 11 10 9 9 10 11 12 13 13 13 14 15 15 14 15 16 17 18 17 16 16 16 15 13 12 10 7 4 2 0 2 4 5 6 6 6 6 6 6 6 5 4 4 5 6 7 7 7 7 7 7 7 6 6 6 6 6 7 7 7 7 6
8 8 8 6 6 8 9 9 8 7 10 13 13 11 12 12 13 15 16 16 17 17 15 14 13 12 11 10 10 10 10 11 12 12 13 14 13 11 13 16 16 18 19 18 18 18 17 15 14 12 9 6 4 2 1 2 3 4 5 6 6 6 6 6 5 5 5 4 4 5 6 6 6 7 7 7 7 7 7 6 6 6 7 8 8 7
10 10 9 7 7 9 9 7 9 11 13 14 12 10 11 12 13 14 16 18 19 20 18 17 16 15 14 12 11 11 11 11 12 12 13 13 12 11 11 14 16 19 21 20 19 19 19 17 16 15 12 10 7 5 5 5 4 4 4 5 6 6 6 5 5 5 5 5 4 4 4 5 5 6 6 6 6 7 7 7 7 7 7 8 8 8
15 16 13 11 11 13 13 12 13 15 16 16 14 12 13 14 14 15 16 18 19 20 20 19 18 17 17 15 14 12 12 13 13 13 13 13 12 11 11 13 15 19 23 23 21 21 20 19 18 17 16 14 11 9 8 8 8 7 6 6 7 7 6 5 5 5 5 5 4 4 3 4 4 5 5 5 5 5 6 7 8 9 9 9 9 9
14 16 15 13 12 12 12 10 10 13 16 16 14 15 16 17 17 17 18 19 20 20 21 22 22 22 21 19 17 15 14 14 15 15 15 15 13 11 11 13 14 16 20 23 23 23 22 21 20 20 19 18 15 14 12 12 11 9 6 7 9 9 9 7 5 5 5 5 4 4 4 4 4 5 5 5 6 5 6 6 7 8 9 9 9 9
11 15 13 11 11 14 15 14 16 20 22 20 19 20 22 22 21 21 21 22 22 22 22 23 25 26 26 23 20 18 16 16 17 17 17 17 16 14 13 13 14 15 17 20 22 23 24 23 23 22 22 21 19 17 15 15 14 11 8 7 10 11 12 11 9 8 7 6 6 6 5 5 5 5 6 6 7 7 7 6 7 7 8 8 8 9
12 13 10 9 11 14 14 14 18 23 23 19 18 22 26 27 26 24 24 24 25 24 24 24 25 28 29 27 26 24 22 21 21 20 19 20 19 17 16 16 16 16 17 18 20 21 21 22 24 24 23 22 21 20 18 17 17 14 10 9 10 12 14 14 14 13 11 9 8 8 8 7 7 7 7 6 7 8 8 8 8 8 8 8 8 8
10 9 9 10 11 10 10 12 18 22 22 19 20 24 28 30 30 29 28 28 26 25 26 25 24 25 27 28 28 29 29 28 28 26 25 25 23 20 20 20 19 19 20 20 20 19 18 18 20 23 23 21 20 20 19 18 18 18 14 12 12 14 14 15 16 16 15 13 12 11 10 10 9 8 8 8 7 8 9 9 10 10 10 10 9 9
8 8 9 9 10 11 14 17 20 23 24 23 23 25 26 27 28 30 30 30 29 28 27 27 26 26 25 25 25 25 27 30 31 29 27 28 28 25 24 24 23 22 23 24 24 22 19 16 16 18 20 20 19 19 19 18 17 17 17 16 15 15 15 16 17 17 17 17 15 14 13 12 11 10 10 9 9 8 9 10 10 10 11 11 11 11
Wind_Direction
225 226 230 230 234 234 231 233 245 275 290 296 293 284 286 286 283 293 298 301 299 298 303 298 290 285 273 259 267 266 260 253 243 241 248 247 250 250 247 244 233 232 229 207 201 205 207 207 209 210 216 222 219 217 215 210 208 207 203 199 203 209 209 220 228 194 166 117 72 80 86 107 114 113 123 152 168 172 173 173 169 167 166 165 166 166
225 225 231 231 237 233 229 239 250 265 281 290 285 278 277 273 276 288 293 294 297 301 303 297 290 282 273 261 258 259 258 259 254 246 244 243 248 252 248 244 236 235 238 221 208 209 208 206 208 209 211 219 222 218 218 218 216 211 207 203 201 207 211 218 232 228 197 158 49 65 91 113 124 123 127 141 158 167 171 171 167 166 167 167 167 168
228 231 236 235 238 237 239 251 257 266 276 278 271 265 262 266 275 279 290 297 303 309 306 302 297 286 283 274 258 255 255 259 261 255 249 244 244 251 252 248 243 240 240 235 225 220 218 213 212 213 210 213 217 218 222 225 224 218 213 216 218 211 208 220 232 232 218 183 106 76 86 105 129 139 140 144 154 164 168 169 167 168 169 169 168 169
231 234 231 233 242 245 249 257 261 268 270 263 253 250 251 262 277 281 296 300 305 311 308 313 309 301 311 297 265 259 260 264 267 263 259 253 249 249 250 250 250 248 246 243 236 230 228 225 221 219 215 215 217 217 223 229 227 216 210 213 217 213 210 219 228 230 229 207 161 134 102 101 122 144 151 152 158 165 168 170 171 170 171 171 170 171
234 238 229 235 250 249 246 256 261 259 254 246 239 244 255 267 279 289 297 301 307 308 313 328 316 300 329 310 278 270 271 274 274 269 264 259 256 251 249 254 256 255 252 249 245 239 235 233 231 230 225 223 223 220 222 229 228 214 205 208 213 217 219 223 231 230 225 216 195 166 146 129 127 136 151 159 164 169 172 175 176 174 174 173 173 175
235 244 241 238 246 237 229 241 247 239 239 240 234 240 258 272 280 286 290 298 298 287 309 332 317 303 337 307 296 301 295 292 286 281 276 265 260 253 250 255 258 257 255 252 250 246 241 240 241 245 241 232 227 223 222 226 229 222 213 214 219 223 227 230 234 233 228 223 212 190 176 163 149 146 150 162 171 175 177 181 182 180 179 178 177 179
231 239 233 209 205 215 217 226 229 229 236 238 227 237 261 273 275 281 286 288 291 292 312 317 308 310 321 310 306 309 306 301 297 296 292 276 266 259 253 252 253 255 257 253 252 250 247 246 250 257 254 244 232 226 226 227 230 230 227 226 228 229 230 231 232 232 233 227 216 205 195 186 172 162 158 163 171 179 184 187 189 188 185 184 182 183
231 224 204 189 200 215 215 220 222 221 229 237 238 247 263 273 270 281 282 274 289 305 303 307 309 303 303 304 308 307 307 309 306 303 298 285 273 261 252 251 250 252 255 253 252 252 251 252 255 263 264 258 248 239 238 237 236 235 234 233 231 230 231 230 229 227 230 227 219 214 208 198 188 180 172 167 170 180 187 190 194 195 194 192 189 187
216 203 193 194 207 216 215 218 221 216 228 251 259 252 259 267 270 279 273 268 294 295 283 298 307 296 297 306 312 318 320 316 307 307 305 291 276 262 251 249 247 248 250 250 251 251 253 256 258 261 264 264 261 256 251 246 244 239 236 235 231 230 230 229 227 223 223 225 221 218 215 209 199 192 188 179 176 182 187 190 195 198 199 199 196 193
199 193 198 210 214 217 223 226 227 221 232 254 259 255 260 263 269 276 265 268 282 281 283 294 292 291 303 313 320 330 325 312 294 310 313 296 278 270 262 257 251 249 248 247 249 251 253 256 257 257 261 266 267 264 257 249 247 245 241 237 233 232 230 228 228 224 219 222 225 221 216 216 211 201 198 193 188 187 187 191 195 196 198 201 200 198
217 205 210 220 216 218 234 234 227 226 234 250 259 257 253 251 261 267 261 272 270 270 285 285 282 287 287 305 326 325 315 306 293 306 313 302 287 279 273 269 263 256 251 248 247 249 252 255 257 259 263 267 268 263 256 249 246 245 240 235 232 231 229 227 230 227 220 221 225 224 220 218 216 212 208 202 198 196 194 193 194 195 196 198 199 200
226 224 224 229 225 225 238 236 228 233 239 246 251 248 245 234 237 244 237 248 263 268 278 273 276 277 274 300 326 321 312 304 299 303 307 303 294 286 280 276 271 266 260 254 249 248 252 255 257 261 264 266 266 261 252 245 241 239 235 230 227 226 225 225 229 230 225 224 225 225 226 223 218 218 217 212 207 204 202 200 197 197 198 199 198 199
229 232 233 236 235 230 235 236 232 235 238 242 240 239 246 242 239 249 242 245 264 271 259 269 277 271 272 301 310 308 311 310 314 318 314 306 300 294 284 278 277 273 268 261 256 254 254 256 257 258 260 260 259 254 248 243 239 238 236 231 227 224 223 224 227 231 231 230 229 227 230 231 226 223 222 220 217 212 209 207 204 202 202 202 202 202
227 221 225 235 239 234 229 226 227 230 229 231 233 235 244 255 263 267 269 271 273 264 238 264 275 268 261 281 291 298 310 313 320 324 322 316 310 304 289 281 283 278 270 262 259 259 258 258 256 255 254 250 246 244 241 239 238 239 239 236 232 226 224 225 227 232 236 236 234 231 233 235 234 231 228 226 224 220 215 213 210 208 206 206 206 206
237 222 216 221 229 233 229 228 236 249 239 229 233 240 246 258 274 280 287 289 286 257 224 257 274 282 289 294 293 301 313 316 319 322 321 319 317 313 296 282 283 283 276 263 258 257 255 254 252 249 245 239 235 234 232 234 236 239 239 237 235 231 228 229 231 233 236 236 236 238 239 240 239 237 234 231 228 225 223 220 216 213 211 209 207 207
249 250 228 218 218 221 227 228 237 253 253 237 231 239 247 254 262 275 284 291 300 289 246 248 271 298 317 307 291 298 319 327 325 324 322 318 316 314 302 285 282 286 284 273 265 259 253 249 247 242 238 234 232 229 230 234 238 240 240 238 236 234 232 232 233 235 235 233 234 239 242 242 241 238 236 236 233 230 228 226 222 218 215 213 210 208
241 241 217 217 214 212 220 226 228 235 241 233 230 236 243 247 252 267 273 266 278 278 258 264 275 286 297 272 278 306 321 332 327 324 324 314 305 302 298 289 288 290 287 278 272 266 258 250 243 239 236 235 231 228 231 237 241 242 241 238 236 236 237 238 239 238 234 232 234 238 243 245 245 242 238 237 236 233 230 227 225 223 219 216 214 211
255 249 214 207 210 213 222 230 231 234 234 228 236 242 235 236 245 257 269 258 253 262 259 271 281 291 298 277 323 328 323 339 327 313 315 310 295 291 292 291 292 293 288 281 275 272 265 254 246 243 240 238 233 232 236 240 243 246 245 242 239 238 240 241 242 240 238 239 240 244 249 251 250 248 244 240 237 235 233 229 226 225 223 220 217 215
263 260 219 198 209 215 215 224 234 241 237 227 228 237 229 233 234 224 248 265 252 262 261 249 272 279 286 308 330 340 334 335 312 292 302 317 303 293 293 294 295 292 286 282 280 277 269 257 249 245 242 240 238 239 242 244 246 248 247 245 242 241 242 243 244 244 243 244 246 248 252 253 252 251 249 246 242 238 235 231 228 227 226 223 220 217
261 266 224 200 217 222 207 220 231 234 238 225 222 229 229 234 239 222 239 260 259 273 271 257 281 241 181 279 298 309 315 306 285 280 298 319 310 299 297 295 293 290 287 285 285 282 272 260 251 246 244 243 245 247 250 250 250 249 248 248 247 245 246 246 246 246 245 245 248 252 256 256 255 253 251 249 246 242 237 232 228 227 227 225 222 219
245 252 245 218 219 227 217 222 235 230 230 223 218 224 221 218 234 234 237 253 267 281 272 266 283 256 146 260 276 288 304 297 296 293 295 315 317 306 302 299 296 292 290 289 289 287 277 267 258 253 251 251 253 256 257 255 253 252 252 252 251 250 249 248 247 248 250 252 255 258 260 260 259 257 257 255 251 248 242 235 229 226 226 225 223 221
233 240 250 237 225 231 228 230 248 244 238 232 226 229 227 220 229 239 237 244 259 270 270 273 284 278 285 286 280 302 325 322 321 295 290 308 317 313 311 309 304 299 295 293 293 290 282 273 266 262 260 259 260 261 260 259 257 256 255 255 254 254 253 252 252 253 257 260 263 264 262 262 263 263 262 260 256 252 246 238 230 226 224 224 224 223
240 240 252 250 239 240 246 251 254 252 248 238 231 234 240 232 230 241 251 246 248 258 266 273 283 289 304 298 289 326 351 340 325 294 290 302 311 318 320 316 313 307 300 296 294 293 289 281 274 270 266 265 266 266 264 262 260 258 256 256 257 258 258 258 258 259 263 266 268 268 267 265 266 267 266 264 259 255 248 240 232 226 224 224 223 222
254 248 255 261 255 248 249 257 259 257 256 243 230 233 244 241 237 247 258 259 247 246 251 252 249 262 279 283 276 321 357 345 329 301 289 294 305 316 321 320 319 311 304 301 299 297 295 290 284 276 269 267 268 269 266 262 260 259 258 260 262 264 264 263 263 265 267 268 269 271 272 274 275 275 273 269 262 256 249 240 233 228 225 224 224 222
258 257 263 265 259 243 233 235 245 245 247 244 237 242 247 242 240 247 253 252 248 247 254 263 276 291 289 286 283 311 334 329 323 308 282 283 298 310 318 321 320 312 307 306 304 301 297 293 289 281 273 270 267 266 265 263 263 264 267 270 270 269 269 268 269 270 269 269 272 273 275 281 285 285 281 273 264 256 249 241 234 229 226 225 224 222
258 263 268 264 263 252 241 249 261 254 253 251 245 246 249 244 239 242 245 246 256 283 279 273 292 309 290 280 288 314 322 316 313 304 278 275 290 303 313 320 318 315 311 308 307 303 298 293 290 284 277 272 267 265 265 266 269 273 276 277 274 272 272 274 275 274 272 274 275 275 278 288 296 296 288 278 268 259 252 244 235 230 227 225 224 223
277 271 265 262 266 268 275 292 287 259 253 252 245 239 243 248 242 238 242 246 256 274 265 261 273 278 276 280 299 318 316 312 310 300 276 270 282 298 310 316 317 316 311 308 307 304 297 291 287 282 276 271 267 264 264 267 271 276 279 278 276 274 276 278 279 278 278 280 277 276 285 299 307 305 294 281 273 265 255 247 238 230 227 225 223 222
288 275 264 266 270 270 276 281 266 246 245 250 247 239 236 243 241 236 243 255 258 257 260 272 264 256 269 295 319 312 302 307 307 290 270 269 276 291 306 312 317 317 312 307 305 299 293 287 281 277 274 271 268 265 264 267 270 274 277 277 276 277 278 280 281 281 283 283 276 277 293 306 312 313 306 291 281 272 259 249 240 231 227 227 224 222
276 271 265 274 280 278 279 278 264 251 251 252 248 242 235 235 239 243 250 261 260 256 272 302 278 260 274 298 310 303 298 305 306 287 274 277 278 283 299 306 314 316 310 305 300 293 286 281 277 276 276 273 271 267 265 266 268 272 275 275 276 279 281 282 283 286 287 281 270 277 299 308 313 319 318 307 298 286 269 255 243 231 226 225 223 221
268 268 266 279 286 279 275 277 268 258 255 252 246 243 237 234 239 246 252 254 253 257 263 264 265 270 281 286 289 293 292 295 300 294 284 280 277 278 291 300 310 314 309 301 294 285 281 280 276 275 276 274 271 270 269 267 268 272 275 277 281 286 288 288 289 293 293 280 264 279 303 311 315 321 322 317 307 295 288 276 255 233 222 220 219 218
267 272 274 282 287 277 268 270 267 258 256 253 247 242 238 240 243 247 251 251 251 260 259 251 262 277 280 280 284 289 287 286 293 296 280 269 271 274 281 293 302 306 304 296 288 279 278 279 275 275 278 277 278 279 277 274 276 279 282 286 292 293 292 294 297 301 297 278 264 284 306 313 318 321 324 325 314 303 307 293 247 219 215 218 216 215
266 276 281 281 278 270 262 259 262 263 262 258 252 244 237 238 243 247 252 251 250 258 262 263 276 277 272 277 282 285 288 290 300 301 270 253 258 261 265 280 291 296 298 291 283 276 276 277 282 288 289 287 287 285 283 284 285 288 292 297 300 297 295 298 305 308 299 279 275 292 309 317 324 325 327 332 327 321 333 334 191 191 206 216 215 215
266 270 275 275 270 265 258 258 268 271 264 256 250 243 238 235 242 253 252 243 247 256 254 253 258 256 259 269 273 280 289 293 305 308 272 249 250 249 248 261 274 283 285 281 277 271 269 273 287 298 301 297 294 291 290 291 292 294 299 303 301 298 297 301 310 315 305 290 288 299 312 320 329 336 334 336 339 342 355 24 147 177 198 205 206 210
264 266 266 265 264 261 259 268 274 265 257 254 248 244 242 235 235 244 237 231 243 251 245 242 243 242 247 255 259 279 296 299 310 310 274 245 244 244 243 253 265 269 264 265 268 266 266 272 285 298 311 311 308 305 301 299 299 300 305 306 302 300 299 299 306 314 310 302 300 304 313 320 328 339 341 336 338 350 4 18 150 190 202 203 205 210
258 261 261 255 256 261 263 266 266 257 251 248 242 240 243 239 232 229 228 230 236 239 236 236 237 233 233 238 248 274 300 312 321 311 261 234 234 237 240 252 265 263 254 255 259 263 275 302 296 300 321 324 322 319 313 309 309 308 311 312 308 302 301 299 299 301 301 300 302 307 315 319 322 331 339 339 334 335 354 15 169 198 210 212 215 221
248 252 258 254 250 254 255 250 250 256 258 247 239 236 235 235 231 225 226 232 231 228 227 226 225 224 227 236 252 272 293 307 315 305 248 223 227 234 239 249 260 260 255 255 258 262 285 304 299 300 326 334 333 330 325 320 317 315 317 321 318 308 301 299 299 299 295 293 295 300 308 311 314 318 323 330 334 328 323 336 185 195 205 206 210 216
245 244 250 252 245 243 249 250 250 253 251 238 243 246 238 230 222 207 201 226 228 223 223 222 222 224 231 241 254 270 290 303 307 299 254 218 221 233 239 246 255 259 259 261 264 265 275 285 281 280 327 344 341 338 333 329 324 320 323 329 330 319 303 296 296 298 298 296 294 297 301 301 303 308 310 314 324 328 302 266 219 206 205 204 205 210
243 238 238 247 244 240 249 254 251 250 245 225 231 241 239 235 227 214 206 225 231 227 226 229 232 233 237 244 252 265 283 292 282 282 264 226 219 229 238 245 252 255 258 264 266 266 270 271 250 242 336 354 353 347 340 336 332 330 333 339 339 328 313 304 300 300 300 303 302 302 303 302 300 304 307 305 307 317 310 257 226 215 211 210 210 210
245 242 237 243 247 243 246 249 248 249 246 224 222 227 228 232 234 229 225 228 235 239 238 239 244 244 243 249 254 260 261 241 243 264 264 236 223 226 233 241 247 250 252 258 262 264 266 258 234 219 353 5 7 0 352 350 345 340 342 344 341 336 329 319 314 311 306 305 308 310 309 309 309 309 310 306 294 292 298 274 229 218 213 212 215 216
244 243 236 239 246 245 244 249 253 254 244 231 228 224 226 233 236 236 232 220 231 245 249 248 252 252 250 254 257 256 252 243 247 259 260 243 231 228 230 236 242 247 249 250 255 258 257 248 231 211 253 12 18 11 6 6 0 352 347 342 339 341 340 332 323 320 316 310 309 311 311 311 315 317 317 313 294 272 268 264 248 239 226 209 206 212
238 241 237 240 247 246 243 247 250 253 252 245 242 240 240 242 240 235 224 210 224 240 247 246 249 252 251 252 251 248 246 245 249 256 260 255 243 232 228 230 236 242 246 245 247 249 249 245 232 214 199 51 26 16 16 19 14 5 355 345 340 341 340 341 330 318 317 316 310 308 310 310 312 315 318 320 304 276 261 256 253 257 257 240 211 205
246 249 244 244 252 252 249 249 248 252 262 255 251 252 248 242 239 232 218 211 219 230 238 240 241 244 246 245 242 240 240 242 246 253 261 264 255 238 227 225 229 235 241 243 242 243 244 241 231 218 203 177 52 15 18 23 21 17 6 354 349 347 344 345 340 321 312 313 313 312 310 307 305 304 306 311 308 294 278 266 257 255 262 268 265 242
263 265 253 251 262 262 254 251 249 260 274 260 253 255 247 234 232 232 225 223 226 229 235 239 239 238 238 238 238 239 240 243 248 255 262 269 268 250 232 227 226 229 235 239 238 237 240 239 232 221 207 195 188 4 10 14 18 16 13 8 0 355 353 349 341 334 324 314 314 316 311 307 305 300 296 296 295 294 291 280 269 261 257 258 261 259
264 264 257 265 282 271 261 262 261 264 272 269 264 259 249 239 236 234 231 232 236 236 238 240 241 239 236 235 237 241 246 249 254 260 264 270 276 266 244 234 226 222 228 234 234 233 234 236 234 227 214 206 204 207 257 329 352 356 359 4 3 0 1 357 344 338 337 328 317 313 309 308 308 304 300 295 287 282 281 279 277 272 263 257 253 250
253 246 246 258 269 264 266 284 282 270 271 279 281 270 256 248 244 238 234 234 237 239 240 240 240 240 237 233 232 238 247 252 254 259 261 264 270 268 253 241 228 218 220 227 232 234 234 233 234 233 226 218 215 221 238 248 259 282 310 331 343 350 356 357 352 341 334 331 323 311 306 309 312 311 309 304 292 280 272 268 268 269 268 266 261 254
260 253 251 261 271 269 269 275 277 274 274 278 280 275 267 259 251 245 241 239 239 241 242 242 242 241 240 237 233 234 243 251 254 256 259 260 260 256 249 245 234 220 216 219 224 229 232 233 233 235 236 232 227 231 240 246 250 261 280 300 315 328 336 341 346 339 328 323 317 307 299 298 300 303 306 306 302 290 278 271 267 264 265 267 267 266
277 267 262 266 272 273 271 271 272 269 267 269 273 277 276 270 260 253 251 248 245 244 245 246 245 242 240 238 237 236 239 248 253 254 256 258 257 250 243 243 239 227 220 219 220 223 228 232 232 234 239 241 237 236 241 247 252 258 277 297 305 312 318 319 321 319 313 306 296 288 283 279 280 284 289 294 295 289 281 278 273 268 264 261 258 262
277 273 272 276 273 267 264 265 266 265 265 269 274 274 273 270 265 260 259 258 256 253 252 253 255 252 246 242 240 239 242 251 256 255 256 257 257 255 249 245 243 239 229 223 221 222 224 229 233 235 239 242 244 244 245 251 256 259 269 289 299 304 306 306 305 304 300 295 287 277 269 264 264 267 271 275 281 284 282 279 275 271 267 261 254 252
278 278 279 282 280 277 275 273 269 269 270 270 268 266 267 267 268 268 267 268 268 267 265 264 266 265 260 255 251 246 247 254 260 260 260 258 256 258 259 253 248 247 241 232 225 221 220 225 231 235 238 240 244 247 249 253 260 265 268 276 288 296 299 299 301 299 296 294 291 284 278 271 265 264 266 267 271 279 283 284 281 277 273 271 266 256
288 286 280 283 288 284 275 269 270 273 272 267 263 267 270 272 274 274 273 272 272 273 271 269 268 268 267 266 264 258 256 261 266 267 265 261 258 261 268 266 258 252 248 242 234 225 220 220 224 231 236 238 239 244 248 252 260 266 271 274 280 286 290 294 297 297 296 295 293 290 287 285 279 274 272 272 273 276 279 281 281 280 280 279 278 271
278 276 272 276 279 274 269 272 279 284 284 280 279 281 281 280 279 277 275 273 271 269 268 267 265 265 267 270 271 268 265 267 271 272 270 266 261 263 270 272 268 261 255 250 244 236 228 222 219 223 229 232 234 237 241 247 255 263 270 272 273 276 279 282 287 290 293 295 294 292 289 287 287 285 282 280 280 277 277 277 277 278 278 278 277 275
Height
3189 3192 3192 3193 3194 3195 3195 3194 3194 3194 3195 3195 3195 3195 3194 3193 3193 3192 3192 3191 3190 3189 3188 3187 3186 3186 3186 3187 3186 3184 3184 3185 3185 3185 3185 3185 3186 3186 3186 3186 3186 3186 3186 3186 3186 3186 3186 3186 3186 3186 3186 3186 3187 3188 3188 3188 3189 3189 3190 3191 3191 3191 3192 3192 3192 3192 3192 3192 3192 3191 3191 3191 3190 3190 3190 3191 3191 3193 3194 3195 3197 3199 3201 3203 3204 3206
3188 3190 3191 3192 3193 3193 3193 3193 3193 3194 3194 3195 3195 3194 3194 3193 3192 3192 3191 3190 3189 3188 3188 3186 3185 3184 3184 3185 3184 3183 3183 3183 3183 3184 3184 3184 3184 3184 3184 3185 3185 3185 3185 3186 3185 3185 3185 3185 3185 3186 3186 3185 3186 3187 3187 3187 3187 3188 3189 3189 3190 3191 3191 3192 3192 3192 3192 3192 3192 3192 3192 3192 3191 3191 3191 3191 3192 3193 3195 3196 3198 3200 3201 3203 3205 3206
3188 3189 3190 3192 3191 3190 3191 3192 3192 3193 3194 3194 3194 3193 3193 3192 3191 3191 3190 3190 3189 3188 3187 3185 3184 3183 3183 3183 3182 3181 3182 3182 3182 3182 3182 3182 3182 3182 3182 3183 3183 3183 3184 3184 3185 3185 3184 3184 3184 3185 3185 3185 3185 3186 3186 3186 3187 3187 3188 3188 3189 3190 3190 3190 3191 3191 3191 3191 3192 3192 3192 3192 3192 3192 3192 3192 3193 3194 3196 3197 3198 3200 3202 3204 3205 3207
3188 3188 3188 3189 3188 3189 3191 3191 3191 3193 3193 3193 3193 3192 3191 3191 3190 3189 3189 3188 3187 3187 3185 3184 3182 3181 3182 3182 3181 3180 3180 3180 3180 3180 3180 3180 3180 3180 3181 3181 3181 3182 3182 3183 3183 3183 3183 3183 3183 3184 3184 3184 3184 3185 3185 3185 3186 3186 3187 3187 3188 3189 3189 3189 3190 3190 3191 3191 3191 3191 3192 3192 3192 3192 3192 3193 3194 3195 3196 3198 3199 3201 3203 3204 3206 3207
3187 3186 3186 3187 3186 3188 3190 3190 3191 3192 3192 3191 3191 3191 3190 3190 3190 3189 3189 3188 3186 3185 3184 3183 3181 3180 3181 3182 3180 3179 3179 3179 3179 3178 3178 3179 3179 3179 3179 3179 3179 3180 3180 3181 3182 3182 3182 3182 3182 3182 3183 3183 3183 3184 3184 3184 3185 3185 3185 3186 3187 3187 3188 3188 3189 3189 3190 3190 3190 3191 3192 3192 3192 3192 3193 3193 3194 3196 3197 3198 3200 3201 3203 3205 3206 3208
3186 3184 3184 3186 3186 3187 3189 3190 3190 3190 3190 3189 3189 3190 3190 3190 3190 3189 3189 3187 3185 3183 3183 3183 3180 3178 3180 3181 3180 3178 3178 3177 3177 3177 3177 3177 3177 3177 3177 3178 3178 3178 3179 3179 3180 3180 3181 3181 3181 3181 3181 3182 3182 3183 3183 3183 3183 3184 3184 3185 3185 3186 3187 3187 3188 3188 3189 3190 3190 3190 3191 3191 3192 3192 3193 3194 3195 3196 3197 3199 3200 3202 3203 3205 3206 3208
3184 3183 3183 3185 3186 3187 3188 3189 3189 3189 3189 3188 3187 3188 3189 3189 3189 3188 3188 3187 3184 3182 3183 3183 3181 3178 3178 3179 3179 3178 3177 3176 3176 3175 3175 3175 3175 3175 3176 3176 3176 3177 3177 3177 3178 3178 3179 3180 3180 3180 3180 3181 3181 3181 3182 3182 3182 3183 3183 3184 3184 3185 3186 3186 3186 3187 3188 3189 3189 3190 3190 3191 3191 3192 3192 3193 3194 3196 3197 3199 3200 3202 3203 3205 3207 3208
3181 3182 3183 3184 3185 3187 3187 3187 3187 3187 3188 3187 3185 3187 3187 3188 3188 3188 3187 3186 3184 3183 3182 3182 3182 3180 3178 3178 3178 3177 3176 3176 3175 3174 3174 3173 3173 3173 3173 3174 3174 3175 3176 3176 3176 3177 3177 3178 3178 3179 3179 3179 3179 3180 3180 3181 3181 3182 3182 3183 3183 3184 3184 3184 3185 3186 3187 3187 3188 3189 3189 3190 3191 3192 3192 3192 3194 3195 3197 3198 3200 3201 3203 3204 3206 3208
3180 3182 3183 3183 3185 3185 3186 3187 3186 3186 3187 3186 3185 3186 3186 3187 3187 3186 3186 3184 3184 3183 3181 3180 3182 3180 3178 3176 3176 3175 3176 3176 3175 3174 3172 3172 3172 3172 3172 3172 3172 3173 3174 3174 3175 3175 3176 3176 3177 3177 3177 3178 3178 3178 3179 3179 3180 3180 3180 3181 3182 3182 3182 3183 3183 3184 3185 3186 3187 3188 3189 3189 3190 3191 3192 3193 3193 3194 3196 3197 3199 3200 3202 3203 3205 3207
3180 3181 3181 3182 3183 3184 3185 3186 3185 3185 3186 3185 3185 3185 3185 3185 3185 3185 3185 3184 3184 3182 3179 3179 3181 3179 3177 3176 3175 3174 3174 3175 3174 3173 3172 3171 3171 3171 3171 3171 3171 3171 3172 3172 3173 3173 3174 3175 3175 3175 3175 3176 3176 3177 3177 3178 3178 3178 3179 3179 3180 3181 3181 3181 3182 3182 3184 3184 3185 3187 3188 3189 3189 3190 3191 3192 3193 3194 3195 3196 3197 3199 3200 3202 3204 3206
3179 3179 3179 3180 3181 3183 3184 3184 3184 3184 3184 3184 3184 3185 3185 3185 3185 3184 3184 3183 3182 3179 3177 3179 3181 3179 3177 3174 3174 3174 3173 3173 3173 3172 3171 3170 3170 3170 3170 3170 3170 3170 3170 3171 3171 3172 3172 3173 3173 3173 3174 3174 3175 3175 3176 3176 3177 3177 3177 3178 3179 3179 3180 3180 3180 3181 3182 3183 3184 3185 3187 3188 3189 3189 3190 3191 3192 3193 3194 3195 3196 3197 3199 3200 3202 3204
3179 3178 3178 3179 3180 3181 3182 3182 3183 3183 3183 3183 3184 3184 3184 3183 3183 3182 3181 3182 3180 3176 3177 3178 3179 3179 3176 3173 3173 3173 3173 3172 3171 3171 3170 3169 3168 3168 3169 3169 3169 3169 3169 3169 3169 3170 3170 3171 3171 3172 3172 3173 3173 3174 3174 3174 3175 3175 3176 3177 3177 3178 3178 3179 3179 3180 3181 3182 3183 3184 3185 3186 3187 3188 3189 3190 3191 3192 3193 3194 3195 3196 3197 3199 3200 3202
3178 3178 3178 3178 3179 3180 3181 3182 3182 3182 3182 3183 3183 3184 3182 3179 3179 3178 3177 3177 3174 3174 3177 3178 3177 3177 3175 3174 3174 3173 3173 3171 3170 3170 3169 3168 3167 3167 3167 3168 3168 3168 3168 3168 3168 3168 3169 3169 3169 3170 3170 3171 3172 3172 3172 3173 3173 3173 3174 3175 3176 3177 3177 3178 3178 3179 3179 3181 3182 3183 3184 3185 3186 3187 3187 3188 3189 3190 3191 3193 3194 3195 3196 3198 3199 3201
3175 3176 3177 3178 3177 3178 3179 3180 3180 3179 3180 3181 3181 3181 3179 3176 3177 3178 3175 3173 3172 3173 3176 3177 3176 3174 3173 3174 3174 3172 3172 3170 3169 3169 3168 3167 3166 3166 3166 3166 3166 3166 3166 3166 3166 3167 3167 3167 3167 3168 3168 3169 3170 3170 3171 3171 3171 3172 3173 3173 3174 3175 3176 3176 3177 3177 3178 3179 3181 3182 3182 3183 3184 3185 3186 3187 3187 3188 3190 3191 3192 3193 3194 3196 3197 3199
3173 3171 3173 3175 3175 3175 3177 3178 3178 3177 3178 3179 3179 3179 3177 3175 3176 3176 3174 3173 3172 3173 3175 3176 3174 3172 3171 3172 3172 3171 3170 3169 3168 3168 3167 3166 3166 3165 3165 3165 3165 3165 3165 3165 3165 3165 3165 3165 3165 3166 3166 3167 3168 3169 3169 3169 3170 3170 3171 3172 3172 3173 3174 3175 3175 3176 3176 3178 3179 3180 3180 3181 3182 3183 3184 3184 3186 3187 3188 3189 3190 3191 3192 3193 3195 3197
3173 3171 3170 3172 3173 3174 3175 3177 3177 3177 3177 3177 3178 3178 3175 3175 3175 3174 3173 3173 3173 3173 3173 3174 3173 3171 3171 3171 3171 3170 3169 3168 3168 3167 3166 3166 3165 3164 3164 3164 3164 3164 3164 3163 3163 3163 3163 3163 3163 3164 3165 3165 3166 3167 3168 3168 3168 3169 3169 3170 3171 3171 3172 3173 3174 3174 3175 3176 3177 3177 3178 3179 3179 3180 3181 3182 3183 3185 3185 3187 3188 3189 3190 3191 3192 3194
3172 3170 3170 3171 3171 3172 3174 3175 3175 3176 3175 3175 3176 3175 3173 3174 3174 3173 3173 3173 3174 3173 3171 3171 3172 3170 3170 3170 3170 3169 3168 3168 3167 3166 3166 3165 3164 3164 3163 3163 3163 3163 3162 3162 3162 3162 3161 3161 3162 3162 3163 3164 3165 3166 3166 3167 3167 3167 3168 3168 3169 3170 3170 3171 3172 3173 3173 3174 3174 3175 3176 3176 3176 3177 3178 3179 3181 3182 3182 3183 3184 3185 3187 3188 3190 3191
3172 3170 3170 3171 3171 3171 3172 3173 3173 3173 3174 3174 3174 3172 3172 3173 3174 3174 3173 3171 3172 3171 3169 3170 3170 3169 3169 3169 3168 3168 3168 3167 3167 3166 3165 3164 3164 3163 3162 3162 3162 3161 3161 3160 3160 3160 3160 3160 3160 3161 3162 3162 3163 3164 3165 3165 3165 3166 3166 3167 3167 3168 3169 3169 3170 3170 3171 3171 3172 3173 3173 3174 3174 3174 3175 3176 3177 3178 3179 3180 3181 3182 3183 3185 3186 3188
3172 3170 3169 3170 3171 3170 3171 3172 3171 3171 3171 3171 3171 3171 3171 3171 3171 3173 3173 3170 3169 3169 3168 3168 3169 3169 3169 3169 3168 3167 3167 3167 3166 3165 3164 3163 3163 3162 3162 3161 3161 3160 3159 3159 3159 3159 3159 3159 3159 3160 3160 3161 3162 3162 3163 3163 3164 3164 3164 3165 3165 3166 3166 3167 3168 3168 3169 3169 3170 3170 3170 3171 3171 3171 3172 3173 3173 3174 3174 3176 3177 3178 3179 3181 3183 3184
3172 3171 3168 3169 3170 3170 3170 3170 3169 3169 3169 3169 3169 3170 3170 3170 3169 3170 3170 3168 3167 3167 3167 3167 3167 3166 3168 3168 3167 3167 3167 3165 3164 3164 3163 3163 3162 3161 3161 3160 3159 3159 3158 3158 3158 3158 3158 3158 3158 3158 3159 3160 3160 3161 3161 3162 3162 3162 3162 3163 3163 3163 3164 3165 3165 3166 3166 3166 3166 3167 3167 3167 3168 3168 3168 3169 3169 3169 3170 3171 3173 3174 3175 3177 3179 3180
3172 3171 3169 3168 3169 3169 3168 3168 3168 3168 3168 3168 3168 3168 3168 3169 3169 3169 3168 3167 3166 3165 3165 3166 3165 3164 3165 3167 3166 3166 3165 3164 3163 3163 3162 3162 3161 3161 3160 3159 3158 3158 3157 3157 3157 3157 3157 3157 3157 3157 3158 3158 3159 3159 3159 3160 3160 3160 3160 3160 3161 3161 3162 3162 3163 3163 3163 3163 3163 3164 3164 3164 3164 3164 3165 3165 3165 3165 3166 3166 3167 3169 3170 3172 3174 3176
3170 3170 3169 3168 3167 3166 3166 3167 3167 3167 3167 3167 3167 3166 3166 3167 3168 3168 3166 3166 3167 3165 3163 3163 3163 3162 3163 3165 3165 3164 3164 3163 3162 3162 3161 3161 3161 3160 3159 3158 3157 3157 3156 3156 3156 3156 3156 3156 3156 3156 3156 3157 3157 3157 3157 3157 3158 3158 3158 3158 3159 3159 3159 3160 3160 3160 3160 3160 3160 3160 3161 3161 3160 3160 3160 3161 3161 3161 3161 3161 3162 3163 3164 3166 3168 3171
3168 3168 3167 3166 3165 3165 3165 3165 3166 3165 3165 3165 3164 3164 3164 3164 3165 3166 3164 3164 3165 3164 3163 3162 3163 3163 3164 3164 3164 3163 3162 3162 3161 3161 3160 3160 3160 3159 3158 3157 3156 3156 3155 3155 3155 3155 3155 3155 3155 3155 3155 3155 3155 3155 3155 3155 3156 3156 3156 3156 3157 3157 3157 3157 3157 3158 3158 3158 3157 3157 3157 3157 3157 3156 3156 3156 3156 3156 3156 3157 3157 3158 3159 3160 3163 3166
3167 3167 3166 3164 3164 3164 3164 3164 3164 3163 3163 3163 3163 3163 3164 3163 3163 3164 3163 3164 3163 3163 3163 3162 3161 3164 3164 3163 3163 3162 3161 3161 3160 3159 3159 3159 3158 3158 3157 3156 3155 3155 3155 3154 3154 3154 3154 3154 3154 3154 3154 3154 3154 3153 3153 3154 3154 3154 3154 3155 3155 3155 3155 3155 3155 3155 3155 3155 3155 3154 3154 3153 3153 3152 3152 3151 3151 3151 3152 3152 3152 3153 3154 3156 3158 3161
3166 3166 3165 3163 3162 3161 3161 3162 3162 3162 3162 3162 3162 3163 3163 3162 3163 3163 3163 3164 3162 3160 3162 3160 3158 3162 3164 3162 3162 3161 3160 3160 3159 3158 3158 3158 3157 3157 3156 3155 3155 3154 3154 3154 3153 3153 3153 3152 3152 3152 3152 3152 3152 3152 3152 3152 3152 3152 3152 3153 3153 3153 3153 3153 3153 3153 3153 3152 3152 3152 3151 3150 3149 3148 3147 3146 3146 3146 3146 3147 3147 3148 3150 3151 3153 3156
3166 3165 3164 3163 3161 3159 3158 3160 3161 3161 3162 3162 3162 3163 3162 3162 3163 3163 3162 3162 3161 3160 3163 3161 3160 3162 3163 3162 3161 3160 3159 3159 3158 3157 3157 3157 3157 3156 3156 3155 3154 3154 3153 3153 3152 3152 3152 3152 3151 3151 3151 3151 3151 3150 3150 3150 3151 3151 3151 3151 3151 3151 3151 3151 3151 3150 3150 3150 3150 3149 3149 3148 3146 3144 3142 3142 3142 3141 3141 3142 3142 3144 3145 3147 3150 3153
3165 3164 3163 3163 3162 3160 3159 3160 3161 3161 3161 3161 3161 3162 3162 3162 3162 3162 3161 3161 3161 3162 3162 3162 3162 3163 3162 3161 3160 3160 3159 3158 3157 3157 3156 3156 3156 3156 3155 3154 3154 3153 3153 3152 3152 3152 3151 3151 3150 3150 3150 3149 3149 3149 3149 3149 3149 3149 3149 3149 3149 3149 3149 3149 3148 3148 3148 3147 3147 3147 3146 3145 3143 3141 3140 3139 3138 3138 3138 3138 3138 3139 3141 3144 3146 3149
3164 3164 3162 3161 3161 3161 3161 3160 3160 3160 3160 3160 3160 3160 3161 3162 3161 3161 3160 3160 3161 3161 3159 3159 3161 3162 3161 3160 3159 3159 3159 3157 3156 3156 3155 3155 3155 3155 3154 3154 3153 3153 3153 3152 3152 3151 3151 3150 3149 3149 3149 3148 3148 3148 3148 3148 3148 3148 3148 3148 3147 3147 3147 3147 3146 3146 3145 3145 3144 3144 3143 3142 3140 3139 3137 3136 3135 3134 3134 3134 3134 3135 3137 3140 3142 3145
3163 3163 3162 3160 3160 3160 3160 3159 3158 3158 3158 3158 3158 3158 3159 3160 3160 3159 3159 3159 3160 3160 3159 3159 3160 3160 3159 3159 3158 3158 3157 3156 3155 3155 3155 3155 3155 3154 3154 3153 3153 3153 3152 3152 3151 3150 3150 3149 3149 3148 3148 3147 3147 3147 3147 3147 3147 3147 3147 3146 3146 3145 3145 3144 3144 3143 3143 3142 3142 3142 3141 3139 3138 3137 3135 3134 3132 3131 3130 3130 3130 3131 3132 3135 3138 3141
3162 3162 3161 3159 3158 3158 3158 3157 3156 3156 3156 3156 3156 3157 3157 3158 3158 3158 3158 3158 3159 3159 3158 3159 3159 3158 3157 3157 3157 3157 3156 3155 3154 3154 3154 3154 3154 3153 3153 3153 3153 3152 3152 3151 3151 3150 3149 3148 3148 3147 3147 3146 3146 3146 3146 3146 3146 3146 3145 3145 3144 3144 3143 3142 3142 3142 3141 3140 3140 3140 3139 3138 3137 3135 3134 3132 3130 3128 3127 3126 3125 3126 3128 3130 3134 3137
3161 3160 3159 3158 3157 3156 3156 3156 3155 3155 3155 3154 3154 3155 3156 3156 3157 3157 3157 3157 3157 3157 3157 3157 3157 3157 3156 3155 3156 3156 3154 3153 3153 3152 3153 3153 3153 3153 3152 3152 3152 3152 3151 3151 3150 3149 3149 3148 3147 3146 3146 3146 3145 3145 3145 3145 3145 3145 3144 3143 3143 3142 3142 3141 3141 3140 3139 3139 3139 3139 3138 3136 3135 3134 3133 3131 3128 3126 3124 3119 3117 3121 3125 3128 3131 3135
3159 3158 3158 3158 3156 3154 3154 3155 3154 3154 3153 3152 3152 3153 3153 3154 3154 3155 3155 3155 3155 3155 3155 3155 3155 3156 3155 3154 3154 3154 3153 3152 3152 3151 3151 3151 3151 3151 3151 3151 3151 3151 3151 3150 3149 3149 3148 3147 3146 3146 3145 3145 3145 3145 3144 3144 3144 3143 3143 3142 3142 3141 3140 3140 3139 3139 3138 3138 3137 3137 3136 3135 3134 3133 3132 3130 3128 3126 3122 3117 3116 3121 3125 3128 3131 3134
3156 3156 3157 3157 3155 3153 3153 3153 3153 3152 3151 3149 3150 3150 3151 3151 3152 3153 3153 3153 3152 3153 3154 3154 3153 3154 3153 3153 3153 3152 3152 3151 3151 3150 3150 3150 3150 3150 3150 3150 3150 3150 3150 3150 3149 3148 3147 3147 3146 3145 3145 3144 3144 3144 3143 3143 3143 3142 3142 3142 3141 3140 3139 3139 3139 3138 3137 3137 3136 3136 3135 3134 3133 3132 3131 3130 3128 3126 3123 3121 3121 3123 3126 3128 3130 3132
3153 3154 3155 3155 3154 3152 3152 3152 3152 3150 3147 3146 3147 3148 3149 3149 3150 3150 3150 3150 3150 3151 3151 3151 3151 3151 3151 3151 3151 3151 3150 3150 3149 3149 3149 3149 3149 3149 3149 3149 3149 3149 3149 3149 3148 3148 3147 3146 3145 3144 3144 3144 3143 3143 3142 3142 3142 3142 3141 3141 3140 3139 3138 3138 3138 3137 3137 3136 3136 3135 3135 3134 3133 3132 3130 3129 3128 3126 3125 3125 3125 3126 3127 3129 3130 3132
3151 3152 3152 3153 3152 3150 3150 3151 3149 3146 3144 3144 3145 3146 3147 3147 3147 3147 3147 3147 3147 3148 3148 3148 3149 3149 3149 3149 3149 3149 3149 3148 3148 3147 3147 3147 3148 3148 3148 3148 3148 3148 3148 3148 3147 3147 3146 3145 3144 3144 3143 3143 3143 3142 3142 3141 3141 3141 3140 3140 3139 3139 3138 3137 3137 3137 3136 3136 3135 3135 3134 3133 3132 3131 3130 3129 3128 3127 3127 3126 3126 3127 3128 3129 3131 3132
3148 3149 3150 3150 3149 3149 3148 3147 3145 3143 3143 3143 3143 3143 3144 3144 3144 3145 3146 3145 3145 3145 3145 3146 3146 3147 3147 3147 3147 3147 3147 3147 3146 3145 3145 3145 3146 3146 3147 3147 3147 3147 3147 3147 3146 3146 3145 3144 3144 3143 3143 3142 3142 3141 3141 3141 3140 3140 3139 3139 3138 3138 3137 3137 3136 3136 3136 3135 3134 3134 3134 3133 3132 3131 3130 3129 3128 3128 3127 3127 3127 3127 3128 3129 3131 3133
3145 3147 3148 3147 3147 3146 3145 3143 3141 3142 3142 3141 3140 3141 3142 3142 3142 3143 3143 3142 3142 3143 3143 3143 3144 3144 3145 3145 3145 3146 3146 3145 3144 3143 3144 3144 3144 3145 3145 3145 3146 3146 3146 3146 3145 3145 3144 3144 3143 3143 3142 3142 3141 3141 3140 3140 3139 3139 3139 3138 3138 3137 3137 3136 3136 3135 3135 3134 3134 3133 3133 3132 3132 3131 3130 3129 3128 3128 3127 3127 3127 3128 3129 3130 3131 3132
3143 3144 3145 3145 3144 3143 3142 3140 3138 3138 3137 3137 3137 3138 3140 3140 3140 3141 3141 3140 3140 3140 3141 3141 3141 3142 3142 3143 3143 3144 3145 3145 3143 3142 3142 3142 3143 3143 3143 3144 3144 3144 3145 3144 3144 3144 3143 3143 3143 3142 3142 3141 3141 3140 3140 3139 3139 3138 3138 3138 3137 3137 3136 3135 3135 3135 3134 3133 3133 3133 3132 3131 3131 3130 3130 3129 3128 3128 3128 3128 3128 3128 3129 3130 3131 3132
3141 3142 3143 3143 3142 3141 3140 3138 3135 3134 3133 3134 3135 3135 3137 3138 3138 3139 3139 3138 3138 3138 3139 3139 3139 3139 3140 3140 3141 3142 3143 3142 3141 3141 3140 3141 3141 3141 3141 3142 3142 3143 3143 3143 3143 3143 3143 3142 3142 3142 3141 3141 3140 3139 3139 3138 3138 3138 3137 3137 3136 3136 3135 3135 3134 3134 3133 3133 3132 3132 3131 3131 3130 3130 3129 3129 3128 3128 3128 3128 3128 3128 3129 3130 3131 3131
3140 3140 3141 3140 3139 3139 3138 3136 3134 3132 3131 3132 3133 3133 3134 3135 3137 3138 3137 3136 3136 3137 3137 3137 3137 3137 3137 3138 3138 3139 3139 3139 3138 3139 3139 3139 3138 3139 3139 3139 3140 3141 3141 3141 3141 3142 3142 3141 3141 3141 3140 3140 3139 3139 3138 3138 3137 3137 3136 3136 3135 3135 3134 3134 3133 3133 3132 3132 3132 3131 3131 3130 3130 3129 3129 3128 3128 3128 3128 3127 3128 3128 3128 3130 3131 3131
3139 3139 3139 3138 3137 3136 3136 3134 3133 3131 3130 3130 3132 3132 3132 3134 3135 3135 3134 3134 3135 3135 3134 3135 3135 3135 3135 3136 3136 3136 3136 3136 3136 3136 3136 3136 3136 3136 3136 3137 3138 3139 3139 3139 3140 3140 3140 3140 3140 3140 3139 3139 3139 3138 3138 3137 3137 3136 3136 3135 3134 3134 3133 3133 3133 3132 3131 3131 3131 3131 3130 3130 3129 3129 3128 3128 3128 3128 3128 3127 3127 3127 3127 3128 3129 3129
3138 3137 3136 3136 3135 3134 3133 3132 3131 3129 3128 3129 3130 3130 3131 3133 3133 3132 3132 3132 3133 3132 3132 3133 3133 3133 3134 3134 3134 3134 3133 3133 3134 3133 3133 3134 3134 3134 3134 3134 3135 3136 3137 3137 3138 3138 3139 3139 3138 3138 3138 3138 3138 3137 3137 3137 3136 3136 3135 3134 3134 3133 3132 3132 3132 3131 3131 3130 3130 3130 3129 3129 3129 3128 3128 3128 3128 3128 3127 3127 3127 3127 3126 3126 3126 3127
3136 3135 3134 3134 3133 3132 3131 3130 3129 3128 3127 3127 3128 3129 3130 3131 3130 3130 3130 3131 3131 3131 3131 3131 3131 3132 3132 3132 3132 3132 3131 3131 3131 3131 3131 3131 3131 3132 3132 3132 3133 3133 3134 3135 3136 3136 3137 3137 3137 3137 3136 3136 3136 3136 3136 3136 3135 3135 3134 3134 3133 3132 3132 3131 3131 3130 3130 3130 3129 3129 3128 3128 3128 3128 3128 3128 3127 3127 3127 3127 3127 3127 3126 3126 3126 3126
3135 3134 3133 3133 3132 3132 3131 3130 3128 3127 3126 3126 3127 3127 3127 3128 3128 3128 3129 3129 3129 3130 3130 3130 3130 3130 3130 3130 3130 3130 3130 3130 3129 3129 3129 3129 3129 3129 3130 3130 3130 3131 3131 3132 3133 3134 3135 3135 3135 3135 3135 3135 3135 3135 3134 3134 3134 3134 3134 3133 3133 3132 3131 3131 3130 3130 3129 3129 3128 3128 3128 3127 3127 3127 3127 3127 3127 3127 3126 3126 3126 3126 3126 3126 3126 3126
3132 3132 3132 3131 3131 3131 3130 3129 3127 3126 3126 3126 3126 3126 3126 3126 3126 3126 3127 3127 3127 3127 3128 3128 3128 3128 3128 3128 3128 3128 3128 3128 3127 3127 3127 3127 3127 3127 3128 3128 3128 3129 3129 3130 3131 3131 3132 3133 3133 3134 3134 3133 3133 3133 3133 3133 3133 3133 3133 3133 3132 3132 3131 3130 3130 3129 3128 3128 3127 3127 3127 3126 3126 3126 3125 3125 3126 3126 3126 3126 3126 3125 3125 3125 3125 3126
3129 3130 3130 3130 3130 3129 3128 3128 3127 3125 3125 3125 3125 3124 3124 3124 3124 3124 3125 3125 3125 3125 3126 3126 3126 3126 3126 3126 3126 3126 3126 3126 3125 3125 3125 3125 3125 3125 3126 3126 3127 3127 3127 3127 3128 3129 3130 3130 3131 3131 3132 3132 3132 3132 3132 3132 3132 3132 3132 3132 3132 3131 3131 3130 3129 3128 3128 3127 3127 3126 3126 3125 3125 3125 3125 3124 3124 3125 3125 3124 3125 3125 3125 3125 3125 3125
3128 3127 3128 3128 3128 3128 3127 3126 3125 3123 3123 3123 3123 3123 3122 3122 3122 3122 3122 3123 3123 3123 3124 3124 3124 3124 3124 3123 3123 3123 3123 3123 3123 3123 3123 3122 3123 3123 3124 3124 3125 3125 3125 3125 3126 3126 3127 3128 3129 3129 3129 3130 3130 3131 3131 3131 3131 3131 3132 3132 3132 3131 3130 3129 3128 3127 3127 3126 3125 3125 3125 3124 3124 3124 3124 3124 3124 3124 3124 3124 3124 3124 3124 3124 3124 3124
3127 3125 3126 3126 3126 3125 3125 3124 3123 3121 3121 3122 3122 3121 3120 3119 3119 3120 3120 3120 3120 3121 3121 3122 3121 3121 3120 3120 3120 3119 3120 3120 3120 3120 3120 3120 3120 3121 3122 3122 3123 3123 3123 3123 3123 3124 3124 3125 3126 3126 3127 3128 3129 3130 3130 3130 3130 3130 3130 3131 3130 3130 3130 3129 3128 3127 3126 3125 3125 3124 3123 3123 3123 3123 3123 3123 3123 3123 3123 3123 3123 3123 3123 3123 3123 3123
3124 3124 3124 3124 3123 3122 3123 3122 3120 3118 3119 3120 3119 3118 3117 3116 3117 3117 3118 3118 3118 3118 3119 3119 3119 3118 3117 3117 3117 3116 3116 3116 3117 3118 3118 3117 3117 3118 3118 3119 3120 3121 3121 3121 3121 3121 3121 3122 3122 3123 3124 3126 3127 3128 3128 3128 3128 3129 3129 3129 3129 3129 3129 3129 3128 3127 3126 3125 3124 3124 3123 3123 3122 3122 3122 3122 3122 3122 3122 3122 3122 3122 3122 3122 3122 3122
3123 3123 3123 3122 3122 3122 3121 3119 3116 3115 3117 3117 3116 3115 3114 3114 3114 3114 3114 3115 3115 3115 3115 3115 3116 3115 3114 3114 3114 3114 3114 3114 3114 3115 3115 3114 3114 3115 3115 3116 3117 3118 3118 3118 3118 3118 3118 3118 3119 3120 3121 3123 3124 3125 3126 3127 3127 3127 3127 3127 3127 3127 3127 3127 3127 3126 3126 3125 3124 3124 3123 3122 3122 3121 3121 3121 3121 3121 3121 3121 3121 3120 3120 3121 3121 3121
3122 3121 3120 3120 3120 3119 3117 3116 3114 3113 3113 3113 3113 3112 3112 3111 3110 3109 3109 3110 3111 3111 3111 3111 3111 3111 3111 3111 3111 3112 3112 3112 3112 3112 3112 3111 3111 3112 3112 3112 3113 3114 3114 3115 3115 3116 3116 3115 3116 3117 3118 3120 3121 3122 3123 3124 3125 3125 3125 3125 3125 3125 3125 3125 3124 3124 3124 3124 3124 3123 3123 3122 3121 3121 3120 3120 3120 3119 3119 3119 3119 3119 3119 3119 3120 3120